Time,TemperatureF,DewpointF,PressureIn,WindDirection,WindDirectionDegrees,WindSpeedMPH,WindSpeedGustMPH,Humidity,HourlyPrecipIn,Conditions,Clouds,dailyrainin,SoftwareType,DateUTC
2013-04-23 00:07:00,35.6,30.0,30.65,SW,226,0.0,-999.0,80,-99.99,,,0.00,weatherlink.com 1.10,2013-04-23 04:07:00,
2013-04-23 00:22:00,34.6,29.0,30.64,SW,225,0.0,-999.0,80,-99.99,,,0.00,weatherlink.com 1.10,2013-04-23 04:22:00,
2013-04-23 00:37:00,33.7,29.0,30.65,SW,226,0.0,-999.0,83,-99.99,,,0.00,weatherlink.com 1.10,2013-04-23 04:37:00,
2013-04-23 00:52:00,33.0,29.0,30.64,SW,225,0.0,-999.0,85,-99.99,,,0.00,weatherlink.com 1.10,2013-04-23 04:52:00,
2013-04-23 01:07:00,32.3,29.0,30.64,SW,226,0.0,-999.0,86,-99.99,,,0.00,weatherlink.com 1.10,2013-04-23 05:07:00,
2013-04-23 01:22:00,32.0,29.0,30.63,SW,226,0.0,-999.0,87,-99.99,,,0.00,weatherlink.com 1.10,2013-04-23 05:22:00,
2013-04-23 01:37:00,31.7,29.0,30.62,SW,225,0.0,-999.0,88,-99.99,,,0.00,weatherlink.com 1.10,2013-04-23 05:37:00,
2013-04-23 01:52:00,31.9,29.0,30.62,SW,226,0.0,-999.0,90,-99.99,,,0.00,weatherlink.com 1.10,2013-04-23 05:52:00,
2013-04-23 02:07:00,32.5,30.0,30.61,SW,225,0.0,-999.0,91,-99.99,,,0.00,weatherlink.com 1.10,2013-04-23 06:07:00,
2013-04-23 02:22:00,33.1,31.0,30.60,SW,225,0.0,-999.0,90,-99.99,,,0.00,weatherlink.com 1.10,2013-04-23 06:22:00,
2013-04-23 02:37:00,33.5,31.0,30.60,SW,225,0.0,-999.0,89,-99.99,,,0.00,weatherlink.com 1.10,2013-04-23 06:37:00,
2013-04-23 02:52:00,33.8,31.0,30.59,SW,225,0.0,-999.0,89,-99.99,,,0.00,weatherlink.com 1.10,2013-04-23 06:52:00,
2013-04-23 03:07:00,34.0,31.0,30.59,SW,226,0.0,-999.0,88,-99.99,,,0.00,weatherlink.com 1.10,2013-04-23 07:07:00,
2013-04-23 03:23:00,34.2,31.0,30.58,SW,225,0.0,-999.0,87,-99.99,,,0.00,weatherlink.com 1.10,2013-04-23 07:23:00,
2013-04-23 03:38:00,34.4,31.0,30.57,SW,226,0.0,-999.0,87,-99.99,,,0.00,weatherlink.com 1.10,2013-04-23 07:38:00,
2013-04-23 03:53:00,34.4,31.0,30.57,SW,225,0.0,-999.0,87,-99.99,,,0.00,weatherlink.com 1.10,2013-04-23 07:53:00,
2013-04-23 04:08:00,34.4,31.0,30.56,SW,225,0.0,-999.0,87,-99.99,,,0.00,weatherlink.com 1.10,2013-04-23 08:08:00,
2013-04-23 04:23:00,34.5,31.0,30.56,SW,225,0.0,-999.0,86,-99.99,,,0.00,weatherlink.com 1.10,2013-04-23 08:23:00,
2013-04-23 04:38:00,34.4,31.0,30.55,SW,226,0.0,-999.0,86,-99.99,,,0.00,weatherlink.com 1.10,2013-04-23 08:38:00,
2013-04-23 04:53:00,34.5,31.0,30.56,SW,226,0.0,-999.0,86,-99.99,,,0.00,weatherlink.com 1.10,2013-04-23 08:53:00,
2013-04-23 05:08:00,34.8,31.0,30.55,SW,226,0.0,-999.0,86,-99.99,,,0.00,weatherlink.com 1.10,2013-04-23 09:08:00,
2013-04-23 05:23:00,35.0,31.0,30.55,SW,225,0.0,-999.0,86,-99.99,,,0.00,weatherlink.com 1.10,2013-04-23 09:23:00,
2013-04-23 05:38:00,35.2,31.0,30.55,SW,226,0.0,-999.0,85,-99.99,,,0.00,weatherlink.com 1.10,2013-04-23 09:38:00,
2013-04-23 05:53:00,35.3,31.0,30.55,SW,226,0.0,-999.0,85,-99.99,,,0.00,weatherlink.com 1.10,2013-04-23 09:53:00,
2013-04-23 06:08:00,35.5,31.0,30.55,SW,226,0.0,-999.0,85,-99.99,,,0.00,weatherlink.com 1.10,2013-04-23 10:08:00,
2013-04-23 06:23:00,35.6,32.0,30.55,SW,226,0.0,-999.0,85,-99.99,,,0.00,weatherlink.com 1.10,2013-04-23 10:23:00,
2013-04-23 06:38:00,35.7,32.0,30.55,SW,226,0.0,-999.0,85,-99.99,,,0.00,weatherlink.com 1.10,2013-04-23 10:38:00,
2013-04-23 06:53:00,35.8,32.0,30.55,SW,225,0.0,-999.0,85,-99.99,,,0.00,weatherlink.com 1.10,2013-04-23 10:53:00,
2013-04-23 07:08:00,36.0,32.0,30.55,SW,226,0.0,-999.0,84,-99.99,,,0.00,weatherlink.com 1.10,2013-04-23 11:08:00,
2013-04-23 07:23:00,36.1,32.0,30.55,SW,226,0.0,-999.0,85,-99.99,,,0.00,weatherlink.com 1.10,2013-04-23 11:23:00,
2013-04-23 07:38:00,36.2,32.0,30.55,SW,226,0.0,-999.0,86,-99.99,,,0.00,weatherlink.com 1.10,2013-04-23 11:38:00,
2013-04-23 07:53:00,36.2,32.0,30.55,South,187,0.0,-999.0,86,-99.99,,,0.00,weatherlink.com 1.10,2013-04-23 11:53:00,
2013-04-23 08:08:00,36.2,33.0,30.54,South,187,0.0,-999.0,87,-99.99,,,0.00,weatherlink.com 1.10,2013-04-23 12:08:00,
2013-04-23 08:23:00,36.1,33.0,30.54,South,187,0.0,-999.0,89,-99.99,,,0.00,weatherlink.com 1.10,2013-04-23 12:23:00,
2013-04-23 08:38:00,36.1,34.0,30.54,South,187,0.0,-999.0,90,-99.99,,,0.00,weatherlink.com 1.10,2013-04-23 12:38:00,
2013-04-23 08:53:00,36.1,34.0,30.53,South,187,0.0,-999.0,91,-99.99,,,0.00,weatherlink.com 1.10,2013-04-23 12:53:00,
2013-04-23 09:08:00,36.2,34.0,30.52,South,187,0.0,-999.0,92,-99.99,,,0.00,weatherlink.com 1.10,2013-04-23 13:08:00,
2013-04-23 09:23:00,36.2,34.0,30.52,South,187,0.0,-999.0,93,-99.99,,,0.00,weatherlink.com 1.10,2013-04-23 13:23:00,
2013-04-23 09:38:00,36.4,35.0,30.52,South,187,1.0,-999.0,93,-99.99,,,0.00,weatherlink.com 1.10,2013-04-23 13:38:00,
2013-04-23 09:53:00,36.6,35.0,30.52,South,187,0.0,-999.0,94,-99.99,,,0.00,weatherlink.com 1.10,2013-04-23 13:53:00,
2013-04-23 10:08:00,36.8,35.0,30.51,SSW,192,0.0,-999.0,94,-99.99,,,0.00,weatherlink.com 1.10,2013-04-23 14:08:00,
2013-04-23 10:23:00,37.0,36.0,30.51,SSW,192,0.0,-999.0,94,-99.99,,,0.00,weatherlink.com 1.10,2013-04-23 14:23:00,
2013-04-23 10:38:00,37.3,36.0,30.51,SSW,192,0.0,-999.0,95,-99.99,,,0.00,weatherlink.com 1.10,2013-04-23 14:38:00,
2013-04-23 10:53:00,37.7,36.0,30.50,SSW,192,0.0,-999.0,95,-99.99,,,0.00,weatherlink.com 1.10,2013-04-23 14:53:00,
2013-04-23 11:08:00,37.9,37.0,30.50,SSW,192,0.0,-999.0,95,-99.99,,,0.00,weatherlink.com 1.10,2013-04-23 15:08:00,
2013-04-23 11:23:00,38.2,37.0,30.50,SSW,192,0.0,-999.0,94,-99.99,,,0.00,weatherlink.com 1.10,2013-04-23 15:23:00,
2013-04-23 11:38:00,38.5,37.0,30.49,SSW,192,0.0,-999.0,94,-99.99,,,0.00,weatherlink.com 1.10,2013-04-23 15:38:00,
2013-04-23 11:53:00,38.6,37.0,30.49,SSW,202,0.0,-999.0,94,-99.99,,,0.00,weatherlink.com 1.10,2013-04-23 15:53:00,
2013-04-23 12:08:00,38.7,37.0,30.49,WNW,295,1.0,-999.0,94,-99.99,,,0.00,weatherlink.com 1.10,2013-04-23 16:08:00,
2013-04-23 12:23:00,38.9,37.0,30.48,SSW,213,0.0,-999.0,94,-99.99,,,0.00,weatherlink.com 1.10,2013-04-23 16:23:00,
2013-04-23 12:38:00,39.1,37.0,30.46,SSW,202,0.0,-999.0,93,-99.99,,,0.00,weatherlink.com 1.10,2013-04-23 16:38:00,
2013-04-23 12:53:00,39.2,37.0,30.46,West,278,0.0,-999.0,93,-99.99,,,0.00,weatherlink.com 1.10,2013-04-23 16:53:00,
2013-04-23 13:08:00,39.2,37.0,30.45,SSW,207,0.0,-999.0,93,-99.99,,,0.00,weatherlink.com 1.10,2013-04-23 17:08:00,
2013-04-23 13:23:00,39.2,37.0,30.45,WSW,253,0.0,-999.0,93,-99.99,,,0.00,weatherlink.com 1.10,2013-04-23 17:23:00,
2013-04-23 13:38:00,39.3,38.0,30.44,SW,219,0.0,-999.0,93,-99.99,,,0.00,weatherlink.com 1.10,2013-04-23 17:38:00,
2013-04-23 13:53:00,39.4,38.0,30.43,SW,219,1.0,-999.0,93,-99.99,,,0.00,weatherlink.com 1.10,2013-04-23 17:53:00,
2013-04-23 14:08:00,39.4,38.0,30.43,East,92,0.0,-999.0,93,-99.99,,,0.00,weatherlink.com 1.10,2013-04-23 18:08:00,
2013-04-23 14:23:00,39.5,38.0,30.43,ENE,75,2.0,-999.0,93,-99.99,,,0.00,weatherlink.com 1.10,2013-04-23 18:23:00,
2013-04-23 14:39:00,39.5,38.0,30.42,SSW,203,0.0,-999.0,93,-99.99,,,0.00,weatherlink.com 1.10,2013-04-23 18:39:00,
2013-04-23 14:54:00,39.6,38.0,30.41,WNW,302,1.0,-999.0,93,-99.99,,,0.00,weatherlink.com 1.10,2013-04-23 18:54:00,
2013-04-23 15:09:00,39.6,38.0,30.40,South,175,0.0,-999.0,94,-99.99,,,0.00,weatherlink.com 1.10,2013-04-23 19:09:00,
2013-04-23 15:24:00,39.6,38.0,30.38,SW,216,0.0,-999.0,94,-99.99,,,0.00,weatherlink.com 1.10,2013-04-23 19:24:00,
2013-04-23 15:39:00,39.7,38.0,30.38,SW,216,0.0,-999.0,94,-99.99,,,0.00,weatherlink.com 1.10,2013-04-23 19:39:00,
2013-04-23 15:54:00,39.6,38.0,30.38,SW,216,0.0,-999.0,94,-99.99,,,0.00,weatherlink.com 1.10,2013-04-23 19:54:00,
2013-04-23 16:09:00,39.6,38.0,30.37,South,175,0.0,-999.0,94,-99.99,,,0.00,weatherlink.com 1.10,2013-04-23 20:09:00,
2013-04-23 16:24:00,39.5,38.0,30.37,West,281,0.0,-999.0,94,-99.99,,,0.00,weatherlink.com 1.10,2013-04-23 20:24:00,
2013-04-23 16:39:00,39.5,38.0,30.37,West,274,0.0,-999.0,95,-99.99,,,0.00,weatherlink.com 1.10,2013-04-23 20:39:00,
2013-04-23 16:54:00,39.5,38.0,30.37,West,274,0.0,-999.0,95,-99.99,,,0.00,weatherlink.com 1.10,2013-04-23 20:54:00,
2013-04-23 17:09:00,39.6,38.0,30.37,West,274,0.0,-999.0,95,-99.99,,,0.00,weatherlink.com 1.10,2013-04-23 21:09:00,
2013-04-23 17:24:00,39.6,38.0,30.36,South,183,1.0,-999.0,95,-99.99,,,0.00,weatherlink.com 1.10,2013-04-23 21:24:00,
2013-04-23 17:39:00,39.6,39.0,30.36,SW,236,0.0,-999.0,96,-99.99,,,0.00,weatherlink.com 1.10,2013-04-23 21:39:00,
2013-04-23 17:54:00,39.7,39.0,30.35,WNW,285,1.0,-999.0,96,-99.99,,,0.00,weatherlink.com 1.10,2013-04-23 21:54:00,
2013-04-23 18:09:00,39.6,39.0,30.35,WNW,283,0.0,-999.0,96,-99.99,,,0.00,weatherlink.com 1.10,2013-04-23 22:09:00,
2013-04-23 18:24:00,39.6,39.0,30.34,SW,227,0.0,-999.0,96,-99.99,,,0.00,weatherlink.com 1.10,2013-04-23 22:24:00,
2013-04-23 18:39:00,39.5,39.0,30.33,West,279,1.0,-999.0,96,-99.99,,,0.00,weatherlink.com 1.10,2013-04-23 22:39:00,
2013-04-23 18:54:00,39.4,38.0,30.33,NNW,327,0.0,-999.0,95,-99.99,,,0.00,weatherlink.com 1.10,2013-04-23 22:54:00,
2013-04-23 19:09:00,39.3,38.0,30.32,SSW,211,0.0,-999.0,95,-99.99,,,0.00,weatherlink.com 1.10,2013-04-23 23:09:00,
2013-04-23 19:24:00,39.4,38.0,30.32,WNW,298,0.0,-999.0,96,-99.99,,,0.00,weatherlink.com 1.10,2013-04-23 23:24:00,
2013-04-23 19:39:00,39.3,38.0,30.31,WNW,298,0.0,-999.0,95,-99.99,,,0.00,weatherlink.com 1.10,2013-04-23 23:39:00,
2013-04-23 19:54:00,39.3,38.0,30.31,WNW,298,0.0,-999.0,95,-99.99,,,0.00,weatherlink.com 1.10,2013-04-23 23:54:00,
2013-04-23 20:09:00,39.2,38.0,30.29,North,355,1.0,-999.0,95,-99.99,,,0.00,weatherlink.com 1.10,2013-04-24 00:09:00,
2013-04-23 20:24:00,39.2,38.0,30.30,South,180,0.0,-999.0,95,-99.99,,,0.00,weatherlink.com 1.10,2013-04-24 00:24:00,
2013-04-23 20:39:00,39.2,38.0,30.29,West,263,0.0,-999.0,95,-99.99,,,0.00,weatherlink.com 1.10,2013-04-24 00:39:00,
2013-04-23 20:54:00,39.1,38.0,30.29,West,264,0.0,-999.0,95,-99.99,,,0.00,weatherlink.com 1.10,2013-04-24 00:54:00,
2013-04-23 21:09:00,39.2,38.0,30.28,West,279,0.0,-999.0,96,-99.99,,,0.00,weatherlink.com 1.10,2013-04-24 01:09:00,
2013-04-23 21:24:00,39.2,38.0,30.28,West,279,0.0,-999.0,96,-99.99,,,0.00,weatherlink.com 1.10,2013-04-24 01:24:00,
2013-04-23 21:39:00,39.1,38.0,30.27,West,279,0.0,-999.0,96,-99.99,,,0.00,weatherlink.com 1.10,2013-04-24 01:39:00,
2013-04-23 21:54:00,39.2,38.0,30.26,North,355,0.0,-999.0,96,-99.99,,,0.00,weatherlink.com 1.10,2013-04-24 01:54:00,
2013-04-23 22:09:00,39.1,38.0,30.26,NW,316,0.0,-999.0,96,-99.99,,,0.00,weatherlink.com 1.10,2013-04-24 02:09:00,
2013-04-23 22:24:00,39.2,38.0,30.26,NW,316,0.0,-999.0,96,-99.99,,,0.00,weatherlink.com 1.10,2013-04-24 02:24:00,
2013-04-23 22:39:00,39.2,38.0,30.25,NW,316,0.0,-999.0,96,-99.99,,,0.00,weatherlink.com 1.10,2013-04-24 02:39:00,
2013-04-23 23:09:00,39.2,38.0,30.24,NW,316,0.0,-999.0,96,-99.99,,,0.00,weatherlink.com 1.10,2013-04-24 03:09:00,
2013-04-23 23:24:00,39.3,38.0,30.22,NW,316,0.0,-999.0,96,-99.99,,,0.01,weatherlink.com 1.10,2013-04-24 03:24:00,
2013-04-23 23:39:00,39.3,38.0,30.20,NW,316,0.0,-999.0,96,-99.99,,,0.01,weatherlink.com 1.10,2013-04-24 03:39:00,